Hourly Data Report for July 09, 2021

FLIN FLON
MANITOBA
Current Station Operator: ECCC - MSC

54°41'00.000" N
101°41'00.000" W
303.90 m
5050919
71954
WFO

Download Data

Hourly Data (July 2021)
Hourly Data Report for July 9, 2021
TIME
LST
Temp Definition
°C
Dew Point Definition
°C
Rel Hum Definition
%
Precip. Amount Definition
mm

Wind Dir Definition
10's deg

Wind Spd Definition
km/h
Visibility Definition
km
Stn Press Definition
kPa
Hmdx Definition


Wind Chill Definition


Weather Definition


00:00 19.1 13.0 68 0.0 21 8   97.65     LegendNANA
01:00 18.4 12.8 70 0.0 20 8   97.65     LegendNANA
02:00 18.7 12.8 68 0.0 19 5   97.64     LegendNANA
03:00 16.7 12.6 77 0.0 25 4   97.67     LegendNANA
04:00 16.3 12.2 77 0.0 21 5   97.68     LegendNANA
05:00 15.4 12.4 82 0.0 22 3   97.69     LegendNANA
06:00 18.3 15.2 82 0.0 21 7   97.71     LegendNANA
07:00 19.8 14.1 70 0.0 20 10   97.69     LegendNANA
08:00 21.7 14.3 63 0.0 20 14   97.65 25   LegendNANA
09:00 24.6 15.3 56 0.0 25 11   97.67 29   LegendNANA
10:00 26.2 15.6 52 0.0 25 13   97.66 31   LegendNANA
11:00 27.6 15.5 48 0.0 22 11   97.65 32   LegendNANA
12:00 30.0 14.7 39 0.0 23 17   97.65 34   LegendNANA
13:00 30.8 13.7 35 0.0 28 16   97.64 34   LegendNANA
14:00 31.7 13.4 33 0.0 26 19   97.63 35   LegendNANA
15:00 32.8 12.6 29 0.0 26 17   97.59 35   LegendNANA
16:00 33.8 11.4 26 0.0 31 20   97.57 36   LegendNANA
17:00 28.7 15.7 45 0.0 36 3   97.59 33   LegendNANA
18:00 31.5 12.9 32 0.0 18 4   97.58 34   LegendNANA
19:00 29.8 14.2 38 0.0 21 5   97.61 33   LegendNANA
20:00 27.1 16.3 52 0.0 26 3   97.65 32   LegendNANA
21:00 24.3 15.2 57 0.0 19 4   97.69 28   LegendNANA
22:00 22.1 16.1 69 0.0 0 1   97.73 27   LegendNANA
23:00 20.4 15.2 72 0.0 5 2   97.77     LegendNANA

Notes on Data Quality.

Legend

  • E = Estimated
  • M = Missing
  • NA = Not Available*
  • [empty] = Indicates an unobserved value
Date modified: